Regional Weather Roundup
Issued by NWS

Home | Current Version | Previous Version | Graphics & Text | Print | Product List | Glossary Off
Versions: 1 2 3 4 5 6 7 8 9 10 11 12 13 14 15 16 17 18 19 20 21 22 23 24 25 26 27 28 29 30 31 32 33 34 35 36 37 38 39 40 41 42 43 44 45 46 47 48 49 50

000
ASUS43 KMKX 071320
RWRWI

WISCONSIN REGIONAL WEATHER ROUNDUP
NATIONAL WEATHER SERVICE MILWAUKEE/SULLIVAN WI
700 AM CST SUN FEB 07 2016

NOTE: "FAIR" INDICATES FEW OR NO CLOUDS BELOW 12,000 FEET WITH NO
SIGNIFICANT WEATHER AND/OR OBSTRUCTIONS TO VISIBILITY.

WIZ001-002-006>008-014>016-023>028-071400-
NORTHWEST WISCONSIN

CITY           SKY/WX    TMP DP  RH WIND       PRES   REMARKS
SUPERIOR ARPT  LGT RAIN  34  32  90 SW8       29.48F WCI  28
ASHLAND        CLOUDY    32  29  88 S10       29.52F WCI  24
HAYWARD        CLOUDY    32  27  81 S13       29.52F WCI  22
SIREN          CLOUDY    34  30  86 SW12G17   29.54F WCI  25
CUMBERLAND     CLOUDY    30  28  93 SW8       29.56S WCI  23
RICE LAKE      CLOUDY    32  28  85 S7        29.58F WCI  26
CHETEK         CLOUDY    31  28  86 SW8       29.58F WCI  24
LADYSMITH      CLOUDY    32  30  92 S12       29.58F WCI  23
EAU CLAIRE     MOCLDY    30  25  81 SW8       29.61F WCI  22
MENOMONIE      CLOUDY    33  28  85 SW7       29.62S WCI  26
NEW RICHMOND   CLOUDY    32  28  85 SW13      29.59F WCI  23
OSCEOLA        CLOUDY    34  30  86 SW13      29.61S WCI  25
$$

WIZ003>005-009-010-017-018-071400-
NORTH CENTRAL WISCONSIN

CITY           SKY/WX    TMP DP  RH WIND       PRES   REMARKS
MANITOWISH WTR CLOUDY    29  28  99 S7        29.53F WCI  22
ARBOR VITAE    CLOUDY    32  30  92 S10       29.55S WCI  23
WOODRUFF       CLOUDY    32  30  92 S10       29.55S WCI  23
RHINELANDER    CLOUDY    30  27  88 S9        29.57F WCI  22
EAGLE RIVER    LGT SNOW  29  28  97 SW3       29.55F
LAND O LAKES   LGT SNOW  29  28  96 SE3       29.53F
PHILLIPS       CLOUDY    30  28  94 S10       29.54F WCI  21
TOMAHAWK       CLOUDY    29  27  93 SW3       29.59S FOG
MEDFORD        CLOUDY    30  28  94 S9        29.59F WCI  21
MERRILL        MIX PCPN  31  29  95 SW7       29.62F WCI  24
$$

WIZ029-030-035-036-043>047-071400-
CENTRAL WISCONSIN

CITY           SKY/WX    TMP DP  RH WIND       PRES   REMARKS
WAUSAU         FLURRIES  32  28  85 S8        29.61F WCI  25
MOSINEE        MOCLDY    30  28  93 SW9       29.63F WCI  22
MARSHFIELD     PTCLDY    30  25  81 SW9       29.62F WCI  22
STEVENS POINT  MIX PCPN  30  28  90 S5        29.65F WCI  25
WAUPACA        CLOUDY    36  30  80 S5        29.68S WCI  32
WAUTOMA        CLOUDY    35  31  86 SW6       29.68F WCI  30
WISC RAPIDS    CLOUDY    32  26  78 SW7       29.67F WCI  26
CAMP DOUGLAS   PTCLDY    35  35  99 SW7       29.67S WCI  29
$$

WIZ011>013-019>022-031-037>040-048>050-071400-
NORTHEAST WISCONSIN

CITY           SKY/WX    TMP DP  RH WIND       PRES   REMARKS
ANTIGO         CLOUDY    30  28  94 SW10      29.61F WCI  21
SHAWANO        CLOUDY    34  30  85 CALM      29.66F
OCONTO         CLOUDY    35  31  85 SW7       29.67F WCI  29
STURGEON BAY   CLOUDY    34  28  80 S9        29.70F WCI  26
GREEN BAY      CLOUDY    36  30  79 S12       29.68F WCI  28
MANITOWOC      CLOUDY    35  30  82 S8        29.72F WCI  29
APPLETON       CLOUDY    36  28  75 S14       29.67F WCI  27
CLINTONVILLE   CLOUDY    32  30  93 S6        29.66F WCI  26
OSHKOSH        CLOUDY    36  29  75 SW13      29.69F WCI  27
$$

WIZ032>034-041-042-053>061-071400-
SOUTHWEST WISCONSIN

CITY           SKY/WX    TMP DP  RH WIND       PRES   REMARKS
LA CROSSE      CLEAR     34  27  75 SW12      29.70S WCI  25
SPARTA         CLEAR     33  29  84 CALM      29.69F
VIROQUA        CLEAR     32  28  86 SW10G17   29.69F WCI  24
BOSCOBEL       PTCLDY    36  30  79 SW7       29.75S WCI  30
PRAIRIE DU CHI CLEAR     35  27  73 SW6       29.76S WCI  30
PLATTEVILLE    CLOUDY    35  31  84 SW14      29.76F WCI  26
$$

WIZ056-057-062-063-064-067-068-071400-
SOUTH CENTRAL WISCONSIN

CITY           SKY/WX    TMP DP  RH WIND       PRES   REMARKS
REEDSBURG      PTCLDY    35  29  80 SW6       29.70S WCI  30
BARABOO/DELLS  PTCLDY    35  28  76 SW9       29.69F WCI  28
LONE ROCK      CLOUDY    37  29  72 SW8       29.73F WCI  31
MINERAL POINT  CLOUDY    36  32  87 SW9       29.74F WCI  29
MADISON        CLOUDY    37  29  72 SW8G17    29.74F WCI  31
MIDDLETON      CLOUDY    38  30  73 SW12G21   29.73R WCI  31
WATERTOWN      CLOUDY    36  30  79 S15       29.73F WCI  27
MONROE         CLOUDY    36  30  80 S21G26    29.73F WCI  24
JANESVILLE     CLOUDY    37  30  75 SW16      29.77F WCI  28
$$

WIZ051-052-058>065-066-070>072-071400-
SOUTHEAST WISCONSIN

CITY           SKY/WX    TMP DP  RH WIND       PRES   REMARKS
MILWAUKEE      CLOUDY    38  28  67 SW21G26   29.77F WCI  28
WAUKESHA       CLOUDY    36  28  75 SW17      29.76F WCI  25
MILWAUKEE/TIMM CLOUDY    37  27  65 SW12      29.77F WCI  30
RACINE         CLOUDY    37  28  70 SW12      29.80F WCI  29
BURLINGTON     CLOUDY    35  28  76 SW15G22   29.78F WCI  25
KENOSHA        CLOUDY    38  28  67 SW14      29.79F WCI  30
FOND DU LAC    CLOUDY    37  29  72 SW16G22   29.70F WCI  28
SHEBOYGAN      CLOUDY    38  29  70 SW14      29.72F WCI  30
WEST BEND      CLOUDY    36  30  80 S9G17     29.73F WCI  29
JUNEAU         CLOUDY    36  30  79 S15G21    29.72F WCI  26
$$

LSZ147-162-071400-
LAKE SUPERIOR

STATION/POSITION TIME  TEMP    WIND        PRES    WAVE
                       AIR SEA DIR/SP/G            HT/PER
                 (UTC) (F)     (DEG/KT/KT) (MB)    (FT/S)
DEVILS ISLAND    1300   32     180/ 10/ 12  999.5F
SAXON HARBOR     1200   35                  999.0F
$$

LMZ867-665-643>646-071400-
LAKE MICHIGAN

STATION/POSITION TIME  TEMP    WIND        PRES    WAVE
                       AIR SEA DIR/SP/G            HT/PER
                 (UTC) (F)     (DEG/KT/KT) (MB)    (FT/S)
CHAMBERS ISLAND  1200   34     170/  8/ 13 1006.1F
ALGOMA LAKESHORE 1241          210/ 16/ 19   N/A
KEWAUNEE LAKESHO 1200   35     200/ 11/ 17 1005.9F
SHEBOYGAN LAKESH 1300   36     190/ 12/ 13 1007.4F
PORT WASHINGTON  1200   38     210/  7/ 10 1009.1F
MILWAUKEE LAKESH 1310   39     220/ 16/ 19   N/A
KENOSHA   LAKESH 1300   39     200/ 12/ 16 1009.1F
$$

TC  - TEMPERATURE IN CELSIUS
VSB - VISIBILITY IN STATUTE MILES
WCI - WIND CHILL INDEX
HX  - HEAT INDEX




USA.gov is the U.S. government's official web portal to all federal, state and local government web resources and services.